Location: Roland
(31.1349°N, 85.4372°W)
Time: 03:27:41
(UTC+00:00)

Vanguard 2 Rocket - Pass Details

Date: 02 December 2021
Orbit: 554 x 3324 km, 32.9° (Epoch: 16 January)

Event Time Altitude Azimuth Distance (km) Brightness Sun altitude
Rises 23:42:42 0° 249° (WSW) 3,164 11.7 -13.5°
Reaches altitude 10° 23:44:40 10° 248° (WSW) 2,423 10.5 -13.9°
Maximum altitude 23:50:21 79° 162° (SSE) 1,165 7.4 -15.1°
Enters shadow 23:57:03 21° 78° (ENE) 3,004 8.9 -16.4°
